FW4132 Weather Reports


Display with metric or nautical units.
time (UTC)temp
F
wind
direction
speed
MPH
gust
MPH
rain 1hr
in
rain 24hr
in
rain mn
in
humidity
%
barometer
mb
20260902043847 60 120 8.0 17.0 0.00 0.00 0.00 55 1011.8
20260902043510 60 83 8.0 17.0 0.00 0.00 0.00 55 1010.3
20260902043340 60 130 9.0 17.0 0.00 0.00 0.00 56 1011.6
20260902043102 60 111 9.0 16.0 0.00 0.00 0.00 56 1011.6
20260902043027 60 67 9.0 16.0 0.00 0.00 0.00 56 1010.3
20260902042505 60 116 8.0 16.0 0.00 0.00 0.00 55 1010.4
20260902042328 60 108 9.0 16.0 0.00 0.00 0.00 56 1011.7
20260902042008 60 92 8.0 16.0 0.00 0.00 0.00 55 1010.6
20260902041822 60 102 9.0 16.0 0.00 0.00 0.00 55 1011.7
20260902041540 60 101 9.0 16.0 0.00 0.00 0.00 54 1010.4
20260902041318 60 108 9.0 16.0 0.00 0.00 0.00 54 1011.8
20260902041040 60 110 10.0 16.0 0.00 0.00 0.00 55 1011.8
20260902041014 60 108 8.0 16.0 0.00 0.00 0.00 53 1010.4
20260902040504 60 98 9.0 16.0 0.00 0.00 0.00 55 1010.3
20260902040313 60 103 10.0 20.0 0.00 0.00 0.00 54 1011.7
20260902040012 60 113 11.0 20.0 0.00 0.00 0.00 54 1010.3
20260902035814 61 117 10.0 20.0 0.00 0.00 0.00 55 1011.8
20260902035507 60 104 10.0 20.0 0.00 0.00 0.00 55 1010.3
20260902035315 61 98 9.0 16.0 0.00 0.00 0.00 55 1011.9
20260902035002 60 98 9.0 16.0 0.00 0.00 0.00 53 1010.4
20260902034814 60 109 8.0 16.0 0.00 0.00 0.00 55 1011.9
20260902034504 60 105 8.0 13.0 0.00 0.00 0.00 54 1010.4
20260902034315 60 128 7.0 13.0 0.00 0.00 0.00 55 1011.9
20260902034038 60 111 7.0 13.0 0.00 0.00 0.00 54 1011.9
20260902034002 60 102 8.0 13.0 0.00 0.00 0.00 53 1010.4
20260902033502 60 117 6.0 13.0 0.00 0.00 0.00 53 1010.3
20260902033314 61 93 7.0 13.0 0.00 0.00 0.00 53 1011.8
20260902033004 60 148 5.0 13.0 0.00 0.00 0.00 52 1010.3
20260902032814 61 98 6.0 13.0 0.00 0.00 0.00 52 1011.6
20260902032501 61 113 6.0 11.0 0.00 0.00 0.00 54 1010.3
20260902032315 61 88 5.0 11.0 0.00 0.00 0.00 52 1011.6
20260902032041 61 107 6.0 12.0 0.00 0.00 0.00 51 1011.6
20260902032003 61 109 4.0 12.0 0.00 0.00 0.00 52 1010.3
20260902031507 61 130 5.0 13.0 0.00 0.00 0.00 50 1010.2
20260902031313 62 133 7.0 13.0 0.00 0.00 0.00 51 1011.5
20260902031005 62 138 5.0 15.0 0.00 0.00 0.00 50 1010.1
20260902030814 62 126 8.0 15.0 0.00 0.00 0.00 53 1011.3
20260902030503 62 115 8.0 15.0 0.00 0.00 0.00 52 1010.0
20260902030315 62 100 8.0 15.0 0.00 0.00 0.00 53 1011.3
20260902030007 62 104 7.0 15.0 0.00 0.00 0.00 54 1009.8
20260902025815 62 87 9.0 15.0 0.00 0.00 0.00 53 1011.2
20260902025504 62 103 8.0 15.0 0.00 0.00 0.00 51 1009.8
20260902025312 63 110 9.0 15.0 0.00 0.00 0.00 52 1011.2
20260902025036 63 88 9.0 15.0 0.00 0.00 0.00 51 1011.2
20260902025003 62 104 10.0 15.0 0.00 0.00 0.00 51 1009.8
20260902024504 62 117 10.0 17.0 0.00 0.00 0.00 50 1009.7
20260902024312 63 84 9.0 17.0 0.00 0.00 0.00 51 1011.1
20260902024004 63 109 10.0 17.0 0.00 0.00 0.00 52 1009.7
20260902023812 63 117 10.0 17.0 0.00 0.00 0.00 54 1011.0
20260902023509 63 112 9.0 14.0 0.00 0.00 0.00 53 1009.7
20260902023313 63 109 10.0 14.0 0.00 0.00 0.00 55 1011.0
20260902023003 63 115 9.0 16.0 0.00 0.00 0.00 50 1009.6
20260902022812 64 111 9.0 16.0 0.00 0.00 0.00 53 1011.1
20260902022502 63 118 8.0 16.0 0.00 0.00 0.00 53 1009.6
20260902022311 64 108 8.0 16.0 0.00 0.00 0.00 51 1011.0
20260902022003 63 80 4.0 16.0 0.00 0.00 0.00 51 1009.6
20260902021812 64 130 8.0 16.0 0.00 0.00 0.00 51 1011.0
20260902021511 63 84 7.0 17.0 0.00 0.00 0.00 51 1009.6
20260902021312 64 74 8.0 18.0 0.00 0.00 0.00 52 1010.9
20260902021003 64 101 8.0 24.0 0.00 0.00 0.00 49 1009.6
20260902020807 64 119 11.0 25.0 0.00 0.00 0.00 50 1010.9
20260902020503 64 90 9.0 25.0 0.00 0.00 0.00 50 1009.6
20260902020308 64 117 13.0 25.0 0.00 0.00 0.00 50 1010.9
20260902020004 64 113 13.0 26.0 0.00 0.00 0.00 52 1009.6
20260902015809 64 103 13.0 26.0 0.00 0.00 0.00 52 1010.9
20260902015502 64 124 13.0 26.0 0.00 0.00 0.00 51 1009.6
20260902015308 64 107 12.0 26.0 0.00 0.00 0.00 51 1010.9
20260902015029 65 122 11.0 22.0 0.00 0.00 0.00 52 1010.9
20260902015002 64 136 13.0 21.0 0.00 0.00 0.00 49 1009.6
20260902014512 64 71 11.0 22.0 0.00 0.00 0.00 51 1009.6
20260902014308 65 119 10.0 24.0 0.00 0.00 0.00 50 1010.9
20260902014006 64 100 10.0 24.0 0.00 0.00 0.00 50 1009.6
20260902013504 64 101 11.0 24.0 0.00 0.00 0.00 48 1009.6
20260902013307 65 63 11.0 25.0 0.00 0.00 0.00 49 1010.9
20260902013009 65 157 10.0 25.0 0.00 0.00 0.00 48 1009.7
20260902012808 65 85 11.0 27.0 0.00 0.00 0.00 49 1010.9
20260902012525 65 101 9.0 27.0 0.00 0.00 0.00 47 1010.8
20260902012506 65 120 15.0 25.0 0.00 0.00 0.00 47 1009.5
20260902012003 65 78 11.0 22.0 0.00 0.00 0.00 47 1009.4
20260902011801 65 105 8.0 27.0 0.00 0.00 0.00 47 1010.8
20260902011503 65 34 7.0 27.0 0.00 0.00 0.00 47 1009.5
20260902011302 65 103 10.0 27.0 0.00 0.00 0.00 47 1010.8
20260902011027 65 164 11.0 24.0 0.00 0.00 0.00 48 1010.8
20260902011004 65 102 11.0 27.0 0.00 0.00 0.00 47 1009.3
20260902010502 65 61 11.0 24.0 0.00 0.00 0.00 50 1009.4
20260902010302 66 87 12.0 29.0 0.00 0.00 0.00 47 1010.8
20260902010011 65 115 13.0 29.0 0.00 0.00 0.00 47 1009.4
20260902005801 66 104 12.0 29.0 0.00 0.00 0.00 49 1010.7
20260902005505 66 106 13.0 29.0 0.00 0.00 0.00 48 1009.4
20260902005305 66 124 12.0 26.0 0.00 0.00 0.00 48 1010.7
20260902005002 66 102 10.0 26.0 0.00 0.00 0.00 46 1009.4
20260902004801 66 77 10.0 26.0 0.00 0.00 0.00 47 1010.7
20260902004504 66 42 11.0 25.0 0.00 0.00 0.00 45 1009.5
20260902004302 67 118 10.0 21.0 0.00 0.00 0.00 46 1010.7
20260902004002 66 78 5.0 29.0 0.00 0.00 0.00 45 1009.4
20260902003802 67 75 12.0 29.0 0.00 0.00 0.00 48 1010.9
20260902003507 66 136 11.0 29.0 0.00 0.00 0.00 46 1009.5
20260902003301 67 111 11.0 29.0 0.00 0.00 0.00 47 1010.8
20260902003016 66 115 11.0 29.0 0.00 0.00 0.00 49 1009.6
20260902002754 67 107 11.0 25.0 0.00 0.00 0.00 44 1010.9
20260902002504 66 46 9.0 22.0 0.00 0.00 0.00 46 1009.6
20260902002247 67 82 12.0 26.0 0.00 0.00 0.00 47 1010.9
20260902002005 66 105 10.0 26.0 0.00 0.00 0.00 48 1009.6
20260902001744 67 113 11.0 26.0 0.00 0.00 0.00 46 1011.0
20260902001518 67 109 15.0 26.0 0.00 0.00 0.00 47 1009.7
20260902001459 67 110 11.0 24.0 0.00 0.00 0.00 46 1011.2
20260902001011 67 119 10.0 15.0 0.00 0.00 0.00 48 1009.9
20260902000742 67 98 10.0 15.0 0.00 0.00 0.00 50 1011.5
20260902000503 67 119 10.0 15.0 0.00 0.00 0.00 47 1010.0
20260902000024 67 83 7.0 17.0 0.00 0.00 0.00 49 1010.1
20260901235740 67 100 9.0 17.0 0.00 0.00 0.00 47 1011.7
20260901235503 67 44 8.0 17.0 0.00 0.00 0.00 48 1010.2
20260901235239 67 126 9.0 17.0 0.00 0.00 0.00 48 1011.5
20260901235002 67 122 5.0 17.0 0.00 0.00 0.00 45 1010.0
20260901234740 67 106 11.0 17.0 0.00 0.00 0.00 45 1011.6
20260901234505 67 109 8.0 17.0 0.00 0.00 0.00 47 1010.1
20260901234239 67 90 10.0 17.0 0.00 0.00 0.00 45 1011.6
20260901234004 67 119 12.0 17.0 0.00 0.00 0.00 44 1010.1
20260901233740 67 102 9.0 25.0 0.00 0.00 0.00 49 1011.3
20260901233503 67 69 8.0 25.0 0.00 0.00 0.00 46 1009.9
20260901233239 67 278 9.0 25.0 0.00 0.00 0.00 48 1011.2
20260901233008 67 107 12.0 25.0 0.00 0.00 0.00 47 1010.0
20260901232740 67 106 8.0 18.0 0.00 0.00 0.00 47 1011.3
20260901232507 67 44 8.0 18.0 0.00 0.00 0.00 48 1010.2
20260901232240 67 83 7.0 15.0 0.00 0.00 0.00 48 1011.5
20260901232006 67 103 7.0 15.0 0.00 0.00 0.00 45 1010.2
20260901232003 67 119 9.0 20.0 0.00 0.00 0.00 45 1011.6
20260901231509 67 96 5.0 24.0 0.00 0.00 0.00 46 1010.2
20260901231238 67 108 10.0 24.0 0.00 0.00 0.00 46 1011.7
20260901231008 67 107 11.0 24.0 0.00 0.00 0.00 46 1010.4
20260901230738 67 99 9.0 24.0 0.00 0.00 0.00 46 1011.8
20260901230507 67 84 7.0 18.0 0.00 0.00 0.00 46 1010.4
20260901230236 67 130 8.0 16.0 0.00 0.00 0.00 46 1011.8
20260901230038 67 103 9.0 15.0 0.00 0.00 0.00 46 1010.6
20260901225731 68 108 8.0 15.0 0.00 0.00 0.00 47 1012.0
20260901225503 67 96 8.0 15.0 0.00 0.00 0.00 44 1010.6
20260901225226 68 111 8.0 19.0 0.00 0.00 0.00 43 1012.0
20260901225007 67 115 9.0 19.0 0.00 0.00 0.00 44 1010.6
20260901224719 68 97 9.0 19.0 0.00 0.00 0.00 45 1012.0
20260901224525 67 81 4.0 20.0 0.00 0.00 0.00 44 1010.6
20260901224213 68 64 10.0 20.0 0.00 0.00 0.00 46 1012.0
20260901224013 68 95 9.0 20.0 0.00 0.00 0.00 42 1010.7
20260901223707 69 96 7.0 20.0 0.00 0.00 0.00 46 1011.9
20260901223503 68 78 7.0 14.0 0.00 0.00 0.00 44 1010.5
20260901223420 69 105 5.0 15.0 0.00 0.00 0.00 41 1012.1
20260901223007 69 104 5.0 15.0 0.00 0.00 0.00 40 1010.7
20260901222923 69 105 5.0 15.0 0.00 0.00 0.00 41 1012.0
20260901222509 69 146 6.0 15.0 0.00 0.00 0.00 40 1010.7
20260901222413 69 122 6.0 14.0 0.00 0.00 0.00 40 1011.9
20260901222007 69 111 6.0 14.0 0.00 0.00 0.00 40 1010.6
20260901221643 69 101 7.0 14.0 0.00 0.00 0.00 43 1011.8
20260901221523 69 98 8.0 15.0 0.00 0.00 0.00 43 1010.5
20260901221137 70 98 7.0 15.0 0.00 0.00 0.00 41 1011.8
20260901221006 70 76 5.0 15.0 0.00 0.00 0.00 42 1010.4
20260901220631 70 117 7.0 15.0 0.00 0.00 0.00 41 1011.9
20260901220507 70 111 7.0 14.0 0.00 0.00 0.00 40 1010.4
20260901220125 71 106 5.0 11.0 0.00 0.00 0.00 40 1011.7
20260901220013 70 93 4.0 13.0 0.00 0.00 0.00 41 1010.4
20260901215619 71 100 5.0 15.0 0.00 0.00 0.00 38 1011.8
20260901215507 71 157 3.0 15.0 0.00 0.00 0.00 38 1010.4
20260901215113 71 111 3.0 15.0 0.00 0.00 0.00 38 1011.8
20260901215010 71 107 7.0 15.0 0.00 0.00 0.00 36 1010.4
20260901214607 71 112 1.0 7.0 0.00 0.00 0.00 38 1011.8
20260901214507 71 160 1.0 4.0 0.00 0.00 0.00 37 1010.5
20260901214101 72 238 2.0 4.0 0.00 0.00 0.00 36 1012.0
20260901214009 71 237 1.0 4.0 0.00 0.00 0.00 35 1010.4
20260901213510 71 164 0.0 4.0 0.00 0.00 0.00 36 1010.6
20260901213049 72 67 2.0 4.0 0.00 0.00 0.00 39 1012.0
20260901213029 72 125 1.0 4.0 0.00 0.00 0.00 36 1010.7
20260901212807 72 174 2.0 7.0 0.00 0.00 0.00 36 1012.0
20260901212503 72 161 0.0 7.0 0.00 0.00 0.00 36 1010.8
20260901212037 72 173 2.0 7.0 0.00 0.00 0.00 37 1012.3
20260901212005 72 224 1.0 7.0 0.00 0.00 0.00 39 1010.9
20260901211531 72 217 2.0 5.0 0.00 0.00 0.00 37 1012.3
20260901211511 71 219 1.0 5.0 0.00 0.00 0.00 36 1010.9
20260901211024 72 234 1.0 5.0 0.00 0.00 0.00 36 1012.3
20260901211003 71 234 1.0 5.0 0.00 0.00 0.00 36 1010.8
20260901210519 71 240 1.0 4.0 0.00 0.00 0.00 39 1012.3
20260901210508 71 239 0.0 4.0 0.00 0.00 0.00 38 1010.8
20260901210025 71 174 0.0 4.0 0.00 0.00 0.00 38 1010.9
20260901210012 71 174 1.0 4.0 0.00 0.00 0.00 38 1012.1
20260901205507 71 198 1.0 6.0 0.00 0.00 0.00 37 1010.9
20260901205004 71 87 1.0 6.0 0.00 0.00 0.00 33 1010.9
20260901205001 72 87 1.0 6.0 0.00 0.00 0.00 34 1012.3
20260901204520 72 322 3.0 6.0 0.00 0.00 0.00 31 1010.9
20260901204455 72 319 1.0 6.0 0.00 0.00 0.00 31 1012.3
20260901204011 72 159 0.0 2.0 0.00 0.00 0.00 34 1010.9
20260901203511 72 194 0.0 3.0 0.00 0.00 0.00 38 1010.9
20260901203443 73 194 1.0 3.0 0.00 0.00 0.00 38 1012.4
20260901203024 72 194 0.0 4.0 0.00 0.00 0.00 35 1011.1
20260901202937 73 194 1.0 4.0 0.00 0.00 0.00 34 1012.4
20260901202511 73 192 0.0 4.0 0.00 0.00 0.00 31 1011.0
20260901202431 73 192 1.0 4.0 0.00 0.00 0.00 31 1012.4
20260901202017 73 99 1.0 4.0 0.00 0.00 0.00 35 1011.0
20260901201927 74 95 0.0 2.0 0.00 0.00 0.00 35 1012.4
20260901201510 73 267 0.0 3.0 0.00 0.00 0.00 36 1010.9
20260901201419 73 267 1.0 3.0 0.00 0.00 0.00 34 1012.1
20260901201009 73 267 0.0 3.0 0.00 0.00 0.00 30 1010.9
20260901200912 74 267 1.0 3.0 0.00 0.00 0.00 30 1012.1
20260901200511 73 207 0.0 6.0 0.00 0.00 0.00 30 1010.7
20260901200407 74 134 2.0 8.0 0.00 0.00 0.00 33 1012.0
20260901200011 74 134 0.0 8.0 0.00 0.00 0.00 30 1010.7
20260901195900 74 134 2.0 8.0 0.00 0.00 0.00 31 1012.0
20260901195623 74 113 2.0 8.0 0.00 0.00 0.00 33 1012.1
20260901195506 74 113 4.0 8.0 0.00 0.00 0.00 33 1010.8
20260901195010 75 230 2.0 8.0 0.00 0.00 0.00 33 1011.0
20260901194849 76 144 3.0 10.0 0.00 0.00 0.00 35 1012.4
20260901194520 75 112 2.0 10.0 0.00 0.00 0.00 33 1011.0
20260901194349 76 114 4.0 10.0 0.00 0.00 0.00 31 1012.4
20260901194012 75 90 5.0 10.0 0.00 0.00 0.00 33 1011.1
20260901193849 75 123 2.0 9.0 0.00 0.00 0.00 34 1012.4
20260901193513 74 105 4.0 9.0 0.00 0.00 0.00 33 1011.2
20260901193349 74 97 3.0 9.0 0.00 0.00 0.00 33 1012.6
20260901193024 74 321 0.0 13.0 0.00 0.00 0.00 32 1011.4
20260901192850 74 320 5.0 13.0 0.00 0.00 0.00 32 1012.7
20260901192515 74 113 4.0 13.0 0.00 0.00 0.00 36 1011.4
20260901192347 74 101 5.0 13.0 0.00 0.00 0.00 33 1012.8
20260901192101 74 109 2.0 8.0 0.00 0.00 0.00 37 1012.9
20260901192006 74 116 3.0 10.0 0.00 0.00 0.00 35 1011.5
20260901191527 73 114 4.0 7.0 0.00 0.00 0.00 37 1011.5
20260901191345 73 90 1.0 7.0 0.00 0.00 0.00 36 1013.1
20260901191013 73 282 0.0 6.0 0.00 0.00 0.00 33 1011.5
20260901190845 73 281 2.0 6.0 0.00 0.00 0.00 34 1013.3
20260901190514 72 121 2.0 12.0 0.00 0.00 0.00 38 1011.6
20260901190343 73 111 4.0 13.0 0.00 0.00 0.00 37 1013.4
20260901190039 72 110 2.0 13.0 0.00 0.00 0.00 36 1011.7
20260901185841 73 106 3.0 13.0 0.00 0.00 0.00 37 1013.3
20260901185517 72 102 7.0 13.0 0.00 0.00 0.00 37 1011.6
20260901185341 72 108 2.0 10.0 0.00 0.00 0.00 37 1013.4
20260901185018 71 118 1.0 10.0 0.00 0.00 0.00 37 1011.8
20260901184841 72 116 5.0 11.0 0.00 0.00 0.00 38 1013.4
20260901184608 72 101 5.0 12.0 0.00 0.00 0.00 39 1013.3
20260901184518 71 112 2.0 12.0 0.00 0.00 0.00 38 1011.8
20260901184006 71 109 7.0 12.0 0.00 0.00 0.00 40 1011.5
20260901183837 72 86 3.0 12.0 0.00 0.00 0.00 40 1013.1
20260901183511 71 105 3.0 12.0 0.00 0.00 0.00 39 1011.4
20260901183337 71 100 3.0 12.0 0.00 0.00 0.00 41 1013.1
20260901183028 70 94 2.0 12.0 0.00 0.00 0.00 42 1011.4
20260901182837 71 85 3.0 12.0 0.00 0.00 0.00 42 1013.1
20260901182502 69 98 4.0 12.0 0.00 0.00 0.00 41 1011.6
20260901182336 69 117 1.0 8.0 0.00 0.00 0.00 41 1013.3
20260901182004 68 126 1.0 4.0 0.00 0.00 0.00 42 1011.7
20260901181831 69 306 1.0 3.0 0.00 0.00 0.00 41 1013.2
20260901181555 69 306 1.0 3.0 0.00 0.00 0.00 40 1013.3
20260901181506 68 306 0.0 3.0 0.00 0.00 0.00 40 1011.7
20260901181001 69 306 1.0 3.0 0.00 0.00 0.00 39 1011.9
20260901180819 69 306 1.0 4.0 0.00 0.00 0.00 41 1013.4
20260901180503 68 306 0.0 4.0 0.00 0.00 0.00 40 1011.9
20260901180313 69 306 1.0 4.0 0.00 0.00 0.00 41 1013.3
20260901180007 68 306 1.0 5.0 0.00 0.00 0.00 40 1011.8
20260901175807 69 299 2.0 5.0 0.00 0.00 0.00 41 1013.3
20260901175504 68 281 1.0 6.0 0.00 0.00 0.00 40 1011.8
20260901175306 69 278 2.0 6.0 0.00 0.00 0.00 40 1013.3
20260901175002 68 315 2.0 6.0 0.00 0.00 0.00 40 1011.8
20260901174805 69 300 2.0 6.0 0.00 0.00 0.00 40 1013.3
20260901174503 68 317 1.0 5.0 0.00 0.00 0.00 41 1011.9
20260901174304 69 316 2.0 5.0 0.00 0.00 0.00 40 1013.4
20260901174001 68 310 1.0 4.0 0.00 0.00 0.00 41 1012.0
20260901173805 69 280 1.0 4.0 0.00 0.00 0.00 42 1013.5
20260901173502 68 277 0.0 4.0 0.00 0.00 0.00 41 1012.0
20260901173305 68 302 1.0 4.0 0.00 0.00 0.00 41 1013.5
20260901173002 68 302 0.0 4.0 0.00 0.00 0.00 42 1012.1
20260901172805 68 302 1.0 4.0 0.00 0.00 0.00 41 1013.7
20260901172504 68 302 1.0 4.0 0.00 0.00 0.00 41 1012.3
20260901172003 68 302 1.0 3.0 0.00 0.00 0.00 42 1012.3
20260901171805 68 172 0.0 3.0 0.00 0.00 0.00 44 1013.7
20260901171531 68 113 0.0 2.0 0.00 0.00 0.00 43 1013.7
20260901171502 68 172 0.0 2.0 0.00 0.00 0.00 44 1012.5
20260901171003 67 113 0.0 2.0 0.00 0.00 0.00 44 1012.5
20260901170801 67 113 1.0 2.0 0.00 0.00 0.00 46 1013.6
20260901170505 66 113 0.0 2.0 0.00 0.00 0.00 46 1012.4
20260901170301 67 113 1.0 2.0 0.00 0.00 0.00 46 1013.6
20260901170004 65 113 0.0 2.0 0.00 0.00 0.00 46 1012.3
20260901165801 66 113 1.0 2.0 0.00 0.00 0.00 47 1013.6
20260901165502 65 113 0.0 2.0 0.00 0.00 0.00 46 1012.4
20260901165301 65 113 1.0 2.0 0.00 0.00 0.00 50 1013.5
20260901165002 64 113 0.0 3.0 0.00 0.00 0.00 51 1012.3
20260901164801 64 113 1.0 3.0 0.00 0.00 0.00 53 1013.5
20260901164524 63 113 2.0 4.0 0.00 0.00 0.00 58 1013.6
20260901164509 63 113 1.0 3.0 0.00 0.00 0.00 56 1012.5
20260901164005 62 113 0.0 6.0 0.00 0.00 0.00 58 1012.4
20260901163503 61 113 2.0 6.0 0.00 0.00 0.00 62 1012.5
20260901163300 61 111 2.0 6.0 0.00 0.00 0.00 63 1013.7
20260901163017 59 121 3.0 4.0 0.00 0.00 0.00 65 1012.5
20260901162801 59 115 0.0 4.0 0.00 0.00 0.00 75 1013.6
20260901162507 58 119 0.0 0.0 0.00 0.00 0.00 81 1012.3
20260901162257 58 119 0.0 0.0 0.00 0.00 0.00 83 1013.5
20260901162014 57 119 0.0 0.0 0.00 0.00 0.00 82 1013.6
20260901162001 57 119 0.0 0.0 0.00 0.00 0.00 82 1012.3
20260901161508 56 119 0.0 0.0 0.00 0.00 0.00 83 1012.3
20260901161256 56 119 0.0 0.0 0.00 0.00 0.00 84 1013.6
20260901161004 55 119 0.0 0.0 0.00 0.00 0.00 83 1012.3
20260901160757 55 119 0.0 0.0 0.00 0.00 0.00 83 1013.7
20260901160515 54 119 0.0 0.0 0.00 0.00 0.00 84 1013.6
20260901160502 54 119 0.0 0.0 0.00 0.00 0.00 82 1012.4
20260901160003 53 119 0.0 0.0 0.00 0.00 0.00 83 1012.4
20260901155757 53 119 0.0 0.0 0.00 0.00 0.00 85 1013.6
20260901155503 52 119 0.0 0.0 0.00 0.00 0.00 85 1012.5
20260901155256 52 119 0.0 0.0 0.00 0.00 0.00 85 1013.7
20260901155004 51 119 0.0 0.0 0.00 0.00 0.00 87 1012.5
20260901154757 51 119 0.0 0.0 0.00 0.00 0.00 88 1013.9
20260901154507 50 119 0.0 0.0 0.00 0.00 0.00 90 1012.5
20260901154257 50 119 0.0 0.0 0.00 0.00 0.00 92 1013.9
20260901154012 49 119 0.0 0.0 0.00 0.00 0.00 92 1014.0
20260901154003 49 119 0.0 0.0 0.00 0.00 0.00 92 1012.6
20260901153503 48 119 0.0 0.0 0.00 0.00 0.00 91 1012.6
20260901153245 48 119 0.0 0.0 0.00 0.00 0.00 92 1013.9
20260901153004 47 117 0.0 0.0 0.00 0.00 0.00 92 1012.6
20260901152741 47 117 0.0 0.0 0.00 0.00 0.00 93 1014.1
20260901152504 46 117 0.0 0.0 0.00 0.00 0.00 93 1012.8
20260901152239 46 117 0.0 0.0 0.00 0.00 0.00 94 1014.1
20260901152005 46 118 0.0 0.0 0.00 0.00 0.00 94 1012.9
20260901151737 46 119 0.0 0.0 0.00 0.00 0.00 94 1014.2
20260901151519 45 119 0.0 0.0 0.00 0.00 0.00 94 1012.8
20260901151235 45 119 0.0 0.0 0.00 0.00 0.00 94 1014.1
20260901151002 45 119 0.0 0.0 0.00 0.00 0.00 94 1012.9
20260901150735 45 120 0.0 0.0 0.00 0.00 0.00 94 1014.2
20260901150504 44 120 0.0 0.0 0.00 0.00 0.00 93 1012.9
20260901150234 44 120 0.0 0.0 0.00 0.00 0.00 94 1014.2
20260901150008 44 120 0.0 0.0 0.00 0.00 0.00 93 1012.8
20260901145733 44 120 0.0 0.0 0.00 0.00 0.00 94 1014.2
20260901145503 44 120 0.0 0.0 0.00 0.00 0.00 93 1012.8
20260901145232 44 120 0.0 0.0 0.00 0.00 0.00 93 1014.2
20260901145003 43 120 0.0 0.0 0.00 0.00 0.00 93 1012.8
20260901144733 44 120 0.0 0.0 0.00 0.00 0.00 93 1014.1
20260901144506 43 120 0.0 0.0 0.00 0.00 0.00 93 1012.8
20260901144233 43 120 0.0 0.0 0.00 0.00 0.00 93 1014.2
20260901144003 43 120 0.0 0.0 0.00 0.00 0.00 93 1012.8
20260901143959 43 120 0.0 0.0 0.00 0.00 0.00 93 1014.2
20260901143503 42 120 0.0 0.0 0.00 0.00 0.00 93 1012.8
20260901143231 43 120 0.0 0.0 0.00 0.00 0.00 93 1014.1
20260901143008 42 120 0.0 0.0 0.00 0.00 0.00 92 1012.8
20260901142951 42 120 0.0 0.0 0.00 0.00 0.00 93 1014.1
20260901142507 42 120 0.0 0.0 0.00 0.00 0.00 92 1012.8
20260901142230 42 120 0.0 0.0 0.00 0.00 0.00 92 1014.1
20260901142007 42 120 0.0 0.0 0.00 0.00 0.00 91 1012.8
20260901141731 42 120 0.0 0.0 0.00 0.00 0.00 91 1014.1
20260901141506 42 120 0.0 0.0 0.00 0.00 0.00 91 1012.8
20260901141230 42 120 0.0 0.0 0.00 0.00 0.00 91 1014.0
20260901141005 41 120 0.0 0.0 0.00 0.00 0.00 90 1012.8
20260901140731 42 120 0.0 0.0 0.00 0.00 0.00 90 1014.0
20260901140507 41 120 0.0 0.0 0.00 0.00 0.00 90 1012.8
20260901140230 42 120 0.0 0.0 0.00 0.00 0.00 90 1014.0
20260901140024 41 120 0.0 0.0 0.00 0.00 0.00 89 1012.8
20260901135724 42 120 0.0 0.0 0.00 0.00 0.00 90 1014.1
20260901135503 41 120 0.0 0.0 0.00 0.00 0.00 89 1012.8
20260901135437 42 120 0.0 0.0 0.00 0.00 0.00 90 1014.1
20260901135007 41 120 0.0 0.0 0.00 0.00 0.00 89 1012.8
20260901134712 42 120 0.0 0.0 0.00 0.00 0.00 89 1014.0
20260901134525 41 120 0.0 0.0 0.00 0.00 0.00 89 1012.7
20260901134422 42 120 0.0 0.0 0.00 0.00 0.00 89 1014.0
20260901134003 41 120 0.0 0.0 0.00 0.00 0.00 89 1012.7
20260901133922 42 120 0.0 0.0 0.00 0.00 0.00 89 1014.0
20260901133503 41 120 0.0 0.0 0.00 0.00 0.00 89 1012.7
20260901133154 42 120 0.0 0.0 0.00 0.00 0.00 89 1014.0
20260901133012 41 120 0.0 0.0 0.00 0.00 0.00 88 1012.6
20260901132648 42 120 0.0 0.0 0.00 0.00 0.00 88 1014.0
20260901132503 41 120 0.0 0.0 0.00 0.00 0.00 87 1012.6
20260901132359 42 120 0.0 0.0 0.00 0.00 0.00 88 1014.1
20260901132003 42 120 0.0 0.0 0.00 0.00 0.00 87 1012.7
20260901131636 42 120 0.0 0.0 0.00 0.00 0.00 88 1014.0
20260901131514 42 120 0.0 0.0 0.00 0.00 0.00 87 1012.6
20260901131130 42 120 0.0 0.0 0.00 0.00 0.00 88 1014.0
20260901131004 42 120 0.0 0.0 0.00 0.00 0.00 87 1012.7
20260901130851 42 120 0.0 0.0 0.00 0.00 0.00 88 1014.1
20260901130503 42 120 0.0 0.0 0.00 0.00 0.00 87 1012.7
20260901130336 42 120 0.0 0.0 0.00 0.00 0.00 87 1014.0
20260901130011 42 120 0.0 0.0 0.00 0.00 0.00 87 1012.7
20260901125834 42 120 0.0 0.0 0.00 0.00 0.00 87 1014.1
20260901125507 42 120 0.0 0.0 0.00 0.00 0.00 87 1012.7
20260901125106 43 120 0.0 0.0 0.00 0.00 0.00 88 1014.1
20260901125014 42 120 0.0 0.0 0.00 0.00 0.00 87 1012.6
20260901124609 43 120 0.0 0.0 0.00 0.00 0.00 88 1014.2
20260901124508 42 120 0.0 0.0 0.00 0.00 0.00 87 1012.8
20260901124054 43 120 0.0 0.0 0.00 0.00 0.00 87 1014.2
20260901124008 42 120 0.0 0.0 0.00 0.00 0.00 87 1012.8
20260901123549 43 120 0.0 0.0 0.00 0.00 0.00 87 1014.3
20260901123510 42 120 0.0 0.0 0.00 0.00 0.00 87 1012.9
20260901123042 43 120 0.0 0.0 0.00 0.00 0.00 87 1014.3
20260901123031 43 120 0.0 0.0 0.00 0.00 0.00 86 1013.0
20260901122504 43 120 0.0 0.0 0.00 0.00 0.00 87 1013.0
20260901122257 43 120 0.0 0.0 0.00 0.00 0.00 87 1014.4
20260901122003 43 120 0.0 0.0 0.00 0.00 0.00 87 1013.1
20260901121524 43 120 0.0 0.0 0.00 0.00 0.00 87 1014.5
20260901121511 43 120 0.0 0.0 0.00 0.00 0.00 87 1013.1
20260901121018 43 120 0.0 0.0 0.00 0.00 0.00 87 1014.4
20260901121006 43 120 0.0 0.0 0.00 0.00 0.00 87 1013.2
20260901120512 43 120 0.0 0.0 0.00 0.00 0.00 88 1014.5
20260901120504 43 120 0.0 0.0 0.00 0.00 0.00 88 1013.2
20260901120014 43 120 0.0 0.0 0.00 0.00 0.00 88 1013.3
20260901120006 44 120 0.0 0.0 0.00 0.00 0.00 88 1014.5
20260901115509 43 120 0.0 0.0 0.00 0.00 0.00 88 1013.4
20260901115500 44 120 0.0 0.0 0.00 0.00 0.00 88 1014.7
20260901115004 43 120 0.0 0.0 0.00 0.00 0.00 87 1013.4
20260901114954 44 120 0.0 0.0 0.00 0.00 0.00 87 1014.9
20260901114705 44 120 0.0 0.0 0.00 0.00 0.00 87 1015.0
20260901114517 43 120 0.0 0.0 0.00 0.00 0.00 87 1013.5
20260901114013 43 120 0.0 0.0 0.00 0.00 0.00 87 1013.6
20260901113942 44 120 0.0 0.0 0.00 0.00 0.00 88 1015.0
20260901113504 43 120 0.0 0.0 0.00 0.00 0.00 87 1013.6
20260901113436 44 120 0.0 0.0 0.00 0.00 0.00 87 1014.9
20260901113017 43 120 0.0 0.0 0.00 0.00 0.00 87 1013.6
20260901112930 44 120 0.0 0.0 0.00 0.00 0.00 88 1014.8
20260901112510 43 120 0.0 0.0 0.00 0.00 0.00 87 1013.6
20260901112424 44 120 0.0 0.0 0.00 0.00 0.00 88 1015.0
20260901112015 43 120 0.0 0.0 0.00 0.00 0.00 87 1013.6
20260901111918 44 120 0.0 0.0 0.00 0.00 0.00 87 1014.9
20260901111511 43 120 0.0 0.0 0.00 0.00 0.00 87 1013.6
20260901111412 44 120 0.0 0.0 0.00 0.00 0.00 88 1015.0
20260901111009 43 120 0.0 0.0 0.00 0.00 0.00 87 1013.6
20260901110906 44 120 0.0 0.0 0.00 0.00 0.00 88 1015.0
20260901110513 43 120 0.0 0.0 0.00 0.00 0.00 86 1013.7
20260901110400 44 120 0.0 0.0 0.00 0.00 0.00 87 1015.0
20260901110009 43 120 0.0 0.0 0.00 0.00 0.00 86 1013.7
20260901105855 44 120 0.0 0.0 0.00 0.00 0.00 87 1015.0
20260901105505 44 120 0.0 0.0 0.00 0.00 0.00 86 1013.6
20260901105348 44 120 0.0 0.0 0.00 0.00 0.00 87 1015.0
20260901105106 44 120 0.0 0.0 0.00 0.00 0.00 87 1015.0
20260901105003 44 120 0.0 0.0 0.00 0.00 0.00 86 1013.6
20260901104532 43 120 0.0 0.0 0.00 0.00 0.00 86 1013.6
20260901104336 44 120 0.0 0.0 0.00 0.00 0.00 87 1015.0
20260901104006 43 120 0.0 0.0 0.00 0.00 0.00 86 1013.6
20260901103830 44 120 0.0 0.0 0.00 0.00 0.00 86 1014.9
20260901103507 43 120 0.0 0.0 0.00 0.00 0.00 86 1013.6
20260901103324 44 120 0.0 0.0 0.00 0.00 0.00 86 1014.9
20260901103020 43 120 0.0 0.0 0.00 0.00 0.00 85 1013.6
20260901102818 44 120 0.0 0.0 0.00 0.00 0.00 86 1015.0
20260901102508 43 120 0.0 0.0 0.00 0.00 0.00 85 1013.6
20260901102313 44 120 0.0 0.0 0.00 0.00 0.00 86 1015.0
20260901102005 43 120 0.0 0.0 0.00 0.00 0.00 85 1013.6
20260901101806 44 120 0.0 0.0 0.00 0.00 0.00 85 1015.0
20260901101523 43 120 0.0 0.0 0.00 0.00 0.00 85 1013.6
20260901101300 44 120 0.0 0.0 0.00 0.00 0.00 85 1015.0
20260901101014 43 120 0.0 0.0 0.00 0.00 0.00 84 1013.6
20260901100754 44 120 0.0 0.0 0.00 0.00 0.00 85 1014.9
20260901100514 43 120 0.0 0.0 0.00 0.00 0.00 84 1013.7
20260901100248 44 120 0.0 0.0 0.00 0.00 0.00 85 1014.9
20260901100019 43 120 0.0 0.0 0.00 0.00 0.00 84 1013.6
20260901095742 44 120 0.0 0.0 0.00 0.00 0.00 85 1015.0
20260901095512 43 120 0.0 0.0 0.00 0.00 0.00 84 1013.6
20260901095235 44 120 0.0 0.0 0.00 0.00 0.00 85 1015.0
20260901095017 43 120 0.0 0.0 0.00 0.00 0.00 84 1013.6
20260901094736 44 120 0.0 0.0 0.00 0.00 0.00 85 1014.9
20260901094514 43 120 0.0 0.0 0.00 0.00 0.00 84 1013.5
20260901094458 44 120 0.0 0.0 0.00 0.00 0.00 84 1014.8
20260901094008 43 120 0.0 0.0 0.00 0.00 0.00 84 1013.5
20260901093736 44 120 0.0 0.0 0.00 0.00 0.00 84 1014.8
20260901093505 43 120 0.0 0.0 0.00 0.00 0.00 83 1013.5
20260901093237 44 120 0.0 0.0 0.00 0.00 0.00 85 1014.9
20260901093018 43 120 0.0 0.0 0.00 0.00 0.00 84 1013.6
20260901092736 44 120 0.0 0.0 0.00 0.00 0.00 84 1014.9
20260901092506 44 120 0.0 0.0 0.00 0.00 0.00 83 1013.5
20260901092237 44 120 0.0 0.0 0.00 0.00 0.00 84 1014.9
20260901092002 44 120 0.0 0.0 0.00 0.00 0.00 83 1013.6
20260901091736 44 120 0.0 0.0 0.00 0.00 0.00 83 1015.0
20260901091503 44 120 0.0 0.0 0.00 0.00 0.00 83 1013.6
20260901091234 44 120 0.0 0.0 0.00 0.00 0.00 83 1015.0
20260901091003 44 120 0.0 0.0 0.00 0.00 0.00 83 1013.6
20260901090732 44 120 0.0 0.0 0.00 0.00 0.00 83 1015.1
20260901090502 44 120 0.0 0.0 0.00 0.00 0.00 83 1013.8
20260901090230 44 120 0.0 0.0 0.00 0.00 0.00 83 1015.1
20260901090008 44 120 0.0 0.0 0.00 0.00 0.00 82 1013.8
20260901085727 44 120 0.0 0.0 0.00 0.00 0.00 82 1015.2
20260901085502 44 120 0.0 0.0 0.00 0.00 0.00 82 1013.9
20260901085226 44 120 0.0 0.0 0.00 0.00 0.00 82 1015.2
20260901085003 44 120 0.0 0.0 0.00 0.00 0.00 82 1014.0
20260901084724 44 120 0.0 0.0 0.00 0.00 0.00 83 1015.2
20260901084505 44 120 0.0 0.0 0.00 0.00 0.00 81 1014.0
20260901084221 45 120 0.0 0.0 0.00 0.00 0.00 82 1015.3
20260901084004 44 120 0.0 0.0 0.00 0.00 0.00 81 1014.1
20260901083938 45 120 0.0 0.0 0.00 0.00 0.00 82 1015.5
20260901083505 44 120 0.0 0.0 0.00 0.00 0.00 81 1014.0
20260901083220 45 120 0.0 0.0 0.00 0.00 0.00 82 1015.5
20260901083011 44 120 0.0 0.0 0.00 0.00 0.00 81 1014.1
20260901082502 45 120 0.0 0.0 0.00 0.00 0.00 80 1014.1
20260901082217 45 120 0.0 0.0 0.00 0.00 0.00 81 1015.5
20260901082002 45 120 0.0 0.0 0.00 0.00 0.00 81 1014.1
20260901081714 45 120 0.0 0.0 0.00 0.00 0.00 81 1015.5
20260901081511 45 120 0.0 0.0 0.00 0.00 0.00 80 1014.1
20260901081215 45 120 0.0 0.0 0.00 0.00 0.00 81 1015.6
20260901081007 45 120 0.0 0.0 0.00 0.00 0.00 80 1014.2
20260901080714 45 120 0.0 0.0 0.00 0.00 0.00 80 1015.7
20260901080504 45 120 0.0 0.0 0.00 0.00 0.00 80 1014.2
20260901080213 46 120 0.0 0.0 0.00 0.00 0.00 80 1015.7
20260901080003 45 120 0.0 0.0 0.00 0.00 0.00 80 1014.2
20260901075714 46 120 0.0 0.0 0.00 0.00 0.00 80 1015.7
20260901075503 45 120 0.0 0.0 0.00 0.00 0.00 80 1014.2
20260901075214 46 120 0.0 0.0 0.00 0.00 0.00 80 1015.7
20260901075007 45 120 0.0 0.0 0.00 0.00 0.00 79 1014.2
20260901074714 46 120 0.0 0.0 0.00 0.00 0.00 80 1015.7
20260901074506 45 120 0.0 0.0 0.00 0.00 0.00 79 1014.3
20260901074213 46 120 0.0 0.0 0.00 0.00 0.00 80 1015.7
20260901074003 46 120 0.0 0.0 0.00 0.00 0.00 79 1014.2
20260901073710 46 120 0.0 0.0 0.00 0.00 0.00 79 1015.7
20260901073503 46 120 0.0 0.0 0.00 0.00 0.00 79 1014.2
20260901073209 46 120 0.0 0.0 0.00 0.00 0.00 79 1015.7
20260901073006 46 120 0.0 0.0 0.00 0.00 0.00 79 1014.2
20260901072710 46 120 0.0 0.0 0.00 0.00 0.00 79 1015.7
20260901072507 46 120 0.0 0.0 0.00 0.00 0.00 78 1014.2
20260901072210 46 120 0.0 0.0 0.00 0.00 0.00 79 1015.8
20260901072010 46 120 0.0 0.0 0.00 0.00 0.00 78 1014.2
20260901071710 46 120 0.0 0.0 0.00 0.00 0.00 78 1015.7
20260901071507 46 120 0.0 0.0 0.00 0.00 0.00 78 1014.2
20260901071434 47 120 0.0 0.0 0.00 0.00 0.00 79 1015.7
20260901071011 46 120 0.0 0.0 0.00 0.00 0.00 78 1014.2
20260901070927 47 120 0.0 0.0 0.00 0.00 0.00 78 1015.8
20260901070510 46 120 0.0 0.0 0.00 0.00 0.00 78 1014.3
20260901070438 47 120 0.0 0.0 0.00 0.00 0.00 78 1015.8
20260901070017 46 120 0.0 0.0 0.00 0.00 0.00 78 1014.3
20260901065926 47 120 0.0 0.0 0.00 0.00 0.00 78 1015.7
20260901065503 46 120 0.0 0.0 0.00 0.00 0.00 77 1014.3
20260901065204 47 120 0.0 0.0 0.00 0.00 0.00 78 1015.8
20260901065008 46 120 0.0 0.0 0.00 0.00 0.00 77 1014.3
20260901064921 47 120 0.0 0.0 0.00 0.00 0.00 78 1015.8
20260901064521 47 120 0.0 0.0 0.00 0.00 0.00 77 1014.4
20260901064152 47 120 0.0 0.0 0.00 0.00 0.00 77 1015.9
20260901064003 47 120 0.0 0.0 0.00 0.00 0.00 76 1014.4
20260901063646 47 120 0.0 0.0 0.00 0.00 0.00 77 1015.9
20260901063503 47 120 0.0 0.0 0.00 0.00 0.00 76 1014.4
20260901063405 47 120 0.0 0.0 0.00 0.00 0.00 77 1015.9
20260901063007 47 120 0.0 0.0 0.00 0.00 0.00 77 1014.5
20260901062635 47 120 0.0 0.0 0.00 0.00 0.00 77 1015.9
20260901062503 47 120 0.0 0.0 0.00 0.00 0.00 77 1014.4
20260901062128 48 120 0.0 0.0 0.00 0.00 0.00 76 1015.9
20260901062008 47 120 0.0 0.0 0.00 0.00 0.00 75 1014.4
20260901061622 48 120 0.0 0.0 0.00 0.00 0.00 77 1015.9
20260901061510 47 120 0.0 0.0 0.00 0.00 0.00 77 1014.4
20260901061116 48 120 0.0 0.0 0.00 0.00 0.00 76 1015.9
20260901061007 47 120 0.0 0.0 0.00 0.00 0.00 76 1014.4
20260901060839 48 120 0.0 0.0 0.00 0.00 0.00 75 1015.9
20260901060503 47 120 0.0 0.0 0.00 0.00 0.00 74 1014.5
20260901060104 48 120 0.0 0.0 0.00 0.00 0.00 76 1015.9
20260901060012 48 120 0.0 0.0 0.00 0.00 0.00 76 1014.5
20260901055558 48 120 0.0 0.0 0.00 0.00 0.00 75 1015.9
20260901055509 48 120 0.0 0.0 0.00 0.00 0.00 75 1014.5
20260901055052 48 120 0.0 0.0 0.00 0.00 0.00 75 1015.9
20260901055009 48 120 0.0 0.0 0.00 0.00 0.00 74 1014.5
20260901054546 49 120 0.0 0.0 0.00 0.00 0.00 74 1016.0
20260901054510 48 120 0.0 0.0 0.00 0.00 0.00 74 1014.6
20260901054040 49 120 0.0 0.0 0.00 0.00 0.00 74 1015.9
20260901054007 48 120 0.0 0.0 0.00 0.00 0.00 74 1014.6
20260901053534 49 120 0.0 0.0 0.00 0.00 0.00 74 1016.0
20260901053510 48 120 0.0 0.0 0.00 0.00 0.00 74 1014.7
20260901053027 49 120 0.0 0.0 0.00 0.00 0.00 73 1016.1
20260901053023 49 120 0.0 0.0 0.00 0.00 0.00 73 1014.8
20260901052502 49 120 0.0 0.0 0.00 0.00 0.00 73 1014.8
20260901052016 49 120 0.0 0.0 0.00 0.00 0.00 73 1016.3
20260901052007 49 120 0.0 0.0 0.00 0.00 0.00 72 1014.9
20260901051510 50 120 0.0 0.0 0.00 0.00 0.00 72 1016.1
20260901051507 49 120 0.0 0.0 0.00 0.00 0.00 72 1014.9
20260901051225 50 120 0.0 0.0 0.00 0.00 0.00 72 1016.1
20260901051003 49 120 0.0 0.0 0.00 0.00 0.00 71 1015.0
20260901050717 50 120 0.0 0.0 0.00 0.00 0.00 72 1016.1
20260901050505 50 120 0.0 0.0 0.00 0.00 0.00 72 1014.9
20260901050012 50 120 0.0 0.0 0.00 0.00 0.00 71 1015.0
20260901045952 50 120 0.0 0.0 0.00 0.00 0.00 71 1016.1
20260901045507 50 120 0.0 0.0 0.00 0.00 0.00 70 1015.0
20260901045446 50 120 0.0 0.0 0.00 0.00 0.00 71 1016.1
20260901045008 50 120 0.0 0.0 0.00 0.00 0.00 70 1015.0
20260901044942 51 120 0.0 0.0 0.00 0.00 0.00 70 1016.1
20260901044657 51 120 0.0 0.0 0.00 0.00 0.00 71 1016.3
20260901044517 50 120 0.0 0.0 0.00 0.00 0.00 70 1015.2
20260901044010 50 120 0.0 0.0 0.00 0.00 0.00 69 1015.1
20260901043928 51 120 0.0 0.0 0.00 0.00 0.00 69 1016.3